Location: Catstown
(52.4386°N, 7.2633°W)
Time: 11:10:47
(UTC+00:00)

Cosmos 1833 Rocket - Pass Details

Date: 22 January 2021
Orbit: 833 x 839 km, 71.0° (Epoch: 24 February)

Event Time Altitude Azimuth Distance (km) Brightness Sun altitude
Rises 18:55:06 0° 329° (NNW) 3,393 6.1 -17.5°
Reaches altitude 10° 18:57:39 10° 336° (NNW) 2,456 5.3 -17.9°
Maximum altitude 19:03:05 47° 50° (NE) 1,097 2.9 -18.7°
Enters shadow 19:05:10 33° 101° (E) 1,384 3.3 -19.0°
